Weather History for Elmendorf AFB, AK

Change the Weather History Date:

Saturday, October 13, 2012

  Actual Average Record
Temperature  
Mean Temperature 31 °F -  
Max Temperature 35 °F 40 °F 52 °F (1953)
Min Temperature 28 °F 29 °F 10 °F (1997)
Degree Days  
Heating Degree Days 34    
Moisture  
Dew Point 25 °F    
Average Humidity 79    
Maximum Humidity 93    
Minimum Humidity 49    
Precipitation  
Precipitation 0.02 in - - ()
Sea Level Pressure  
Sea Level Pressure 29.19 in    
Wind  
Wind Speed 7 mph (NNE)    
Max Wind Speed 16 mph    
Max Gust Speed -    
Visibility 8 miles    
Events Snow    
Averages and records for this station are not official NWS values.
T = Trace of Precipitation, MM = Missing Value Source: NWS Daily Summary

Daily Weather History Graph

Daily Weather History Graph

Search for Another Location

Airport:

Trip Planner

Search our weather history database for the weather conditions in past years. The results will help you decide how hot, cold, wet, or windy it might be!

Date:

Astronomy

Oct. 13, 2012 Rise Set
Actual Time 8:38 AM AKDT 6:51 PM AKDT
Civil Twilight 7:54 AM AKDT 7:34 PM AKDT
Nautical Twilight 7:04 AM AKDT 8:24 PM AKDT
Astronomical Twilight 6:13 AM AKDT 9:15 PM AKDT
Moon 6:18 AM AKDT (10/13) 5:52 PM AKDT (10/13)
Length of Visible Light 11h 40m
Length of Day
10h 12m
Waning Crescent, 4% of the Moon is Illuminated
Oct 13
Waning Crescent
Oct 15
New
Oct 21
First Quarter
Oct 29
Full
Nov 6
Last Quarter

Hourly Weather History & Observations

Time (AKDT) Temp. Windchill Dew Point Humidity Pressure Visibility Wind Dir Wind Speed Gust Speed Precip Events Conditions
12:55 AM 28.8 °F - 23.5 °F 81% 29.12 in 10.0 mi Calm Calm - N/A   Clear
1:55 AM 31.5 °F 22.9 °F 24.8 °F 76% 29.11 in 10.0 mi North 10.4 mph - N/A   Clear
2:55 AM 31.6 °F 23.1 °F 21.2 °F 65% 29.10 in 10.0 mi North 10.4 mph - N/A   Clear
3:55 AM 31.3 °F 22.7 °F 21.0 °F 66% 29.10 in 10.0 mi NNE 10.4 mph - N/A   Clear
4:55 AM 32.5 °F 23.2 °F 16.5 °F 52% 29.09 in 10.0 mi NNE 12.7 mph - N/A   Clear
5:55 AM 32.9 °F 24.1 °F 15.8 °F 49% 29.09 in 10.0 mi NNE 11.5 mph - N/A   Clear
6:55 AM 32.0 °F 23.0 °F 18.0 °F 56% 29.10 in 10.0 mi North 11.5 mph - N/A   Partly Cloudy
7:55 AM 31.1 °F 20.1 °F 16.2 °F 54% 29.11 in 10.0 mi North 16.1 mph - N/A   Overcast
8:55 AM 31.3 °F 23.9 °F 16.5 °F 54% 29.12 in 10.0 mi North 8.1 mph - N/A   Overcast
9:55 AM 31.5 °F 23.5 °F 16.3 °F 54% 29.13 in 10.0 mi North 9.2 mph - N/A   Overcast
10:55 AM 31.6 °F 23.7 °F 16.0 °F 52% 29.14 in 10.0 mi North 9.2 mph - N/A   Overcast
11:55 AM 32.7 °F 26.4 °F 15.8 °F 50% 29.15 in 10.0 mi NNE 6.9 mph - N/A   Overcast
12:55 PM 34.2 °F 29.0 °F 18.3 °F 52% 29.16 in 10.0 mi North 5.8 mph - N/A   Overcast
1:41 PM 33.8 °F 25.3 °F 23.0 °F 65% 29.16 in 10.0 mi NE 11.5 mph - N/A   Clear
1:50 PM 33.8 °F 25.3 °F 23.0 °F 65% 29.17 in 10.0 mi NE 11.5 mph - N/A Snow Light Snow
1:55 PM 34.3 °F 26.5 °F 23.0 °F 63% 29.18 in 7.0 mi NE 10.4 mph - 0.00 in Snow Light Snow
2:55 PM 34.7 °F 30.6 °F 21.7 °F 59% 29.19 in 10.0 mi NNE 4.6 mph - N/A Snow Light Snow
3:23 PM 33.8 °F 27.0 °F 21.2 °F 60% 29.20 in 10.0 mi NNE 8.1 mph - N/A   Scattered Clouds
3:30 PM 33.8 °F 28.6 °F 23.0 °F 65% 29.20 in 5.0 mi ENE 5.8 mph - N/A Snow Light Snow
3:55 PM 32.5 °F 27.1 °F 26.2 °F 78% 29.21 in 4.0 mi NE 5.8 mph - 0.00 in Snow Light Snow
4:29 PM 32.0 °F - 28.4 °F 87% 29.21 in 2.5 mi Calm Calm - N/A Snow Light Snow
4:33 PM 32.0 °F 27.5 °F 28.4 °F 87% 29.21 in 1.8 mi NE 4.6 mph - N/A Snow Light Snow
4:36 PM 32.0 °F 27.5 °F 28.4 °F 87% 29.21 in 1.5 mi NE 4.6 mph - N/A Snow Light Snow
4:40 PM 32.0 °F 26.4 °F 28.4 °F 87% 29.21 in 1.8 mi NNE 5.8 mph - N/A Snow Light Snow
4:42 PM 32.0 °F 26.4 °F 28.4 °F 87% 29.21 in 2.0 mi NNE 5.8 mph - N/A Snow Light Snow
4:50 PM 30.2 °F 25.4 °F 28.4 °F 93% 29.21 in 2.5 mi NE 4.6 mph - N/A Snow Light Snow
4:53 PM 30.2 °F 25.4 °F 28.4 °F 93% 29.21 in 1.8 mi NNE 4.6 mph - N/A Snow Light Snow
4:54 PM 30.2 °F 25.4 °F 28.4 °F 93% 29.21 in 2.0 mi NNE 4.6 mph - N/A Snow Light Snow
4:55 PM 30.9 °F 26.2 °F 28.2 °F 90% 29.21 in 2.0 mi NNE 4.6 mph - 0.00 in Snow Light Snow
5:15 PM 30.2 °F 22.6 °F 28.4 °F 93% 29.21 in 1.8 mi NE 8.1 mph - N/A Snow Light Snow
5:20 PM 30.2 °F 22.6 °F 28.4 °F 93% 29.21 in 2.0 mi NNE 8.1 mph - N/A Snow Light Snow
5:36 PM 30.2 °F 23.4 °F 28.4 °F 93% 29.21 in 3.0 mi NNE 6.9 mph - N/A Snow Light Snow
5:55 PM 30.6 °F 23.8 °F 28.6 °F 92% 29.22 in 5.0 mi Variable 6.9 mph - 0.01 in Snow Light Snow
6:02 PM 30.2 °F 24.3 °F 28.4 °F 93% 29.22 in 9.0 mi Variable 5.8 mph - N/A Snow Light Snow
6:37 PM 30.2 °F 23.4 °F 28.4 °F 93% 29.22 in 10.0 mi NNE 6.9 mph - N/A   Overcast
6:39 PM 30.2 °F 25.4 °F 28.4 °F 93% 29.21 in 10.0 mi NNE 4.6 mph - N/A   Overcast
6:55 PM 30.6 °F 25.8 °F 28.2 °F 91% 29.22 in 10.0 mi North 4.6 mph - 0.00 in   Overcast
7:00 PM 30.2 °F 24.3 °F 28.4 °F 93% 29.22 in 10.0 mi NNE 5.8 mph - N/A   Overcast
7:20 PM 30.2 °F 26.7 °F 28.4 °F 93% 29.22 in 10.0 mi NE 3.5 mph - N/A   Overcast
7:35 PM 30.2 °F 25.4 °F 28.4 °F 93% 29.22 in 10.0 mi NNE 4.6 mph - N/A   Overcast
7:55 PM 30.9 °F 24.3 °F 28.9 °F 92% 29.22 in 10.0 mi Variable 6.9 mph - 0.01 in   Overcast
7:58 PM 30.2 °F 23.4 °F 28.4 °F 93% 29.22 in 10.0 mi NNE 6.9 mph - N/A   Overcast
8:13 PM 30.2 °F 23.4 °F 28.4 °F 93% 29.23 in 10.0 mi NNE 6.9 mph - N/A   Overcast
8:55 PM 31.1 °F 24.5 °F 28.8 °F 91% 29.22 in 10.0 mi Variable 6.9 mph - N/A   Overcast
9:03 PM 32.0 °F 25.6 °F 28.4 °F 87% 29.23 in 10.0 mi Variable 6.9 mph - N/A   Overcast
9:47 PM 32.0 °F 26.4 °F 28.4 °F 87% 29.23 in 10.0 mi NNE 5.8 mph - N/A   Overcast
9:55 PM 31.1 °F 23.7 °F 29.1 °F 92% 29.22 in 10.0 mi NNE 8.1 mph - N/A   Overcast
10:52 PM 32.0 °F 25.6 °F 28.4 °F 87% 29.22 in 10.0 mi NNE 6.9 mph - N/A   Overcast
10:55 PM 31.3 °F 27.9 °F 29.3 °F 92% 29.22 in 10.0 mi Variable 3.5 mph - N/A   Overcast
11:22 PM 32.0 °F 25.6 °F 28.4 °F 87% 29.21 in 10.0 mi NNE 6.9 mph - N/A   Mostly Cloudy
11:55 PM 31.5 °F 24.9 °F 29.5 °F 92% 29.21 in 10.0 mi NE 6.9 mph - N/A   Mostly Cloudy